M I D A S
Marine Information and Data Acquisition System
Tripno 898 of the Zeeleeuw from 2005-05-11 08:13:35 to 2005-05-11 10:35:43
Back to CruiseResearch ActivitiesStationsMapUnderway DataData graphs

EquipmentUnitsComments
TimeDGPSUTC
LatitudeDGPSDM.mWGS84
LongitudeDGPSDM.mWGS84
SpeedMeteo Stationm/sRelative wind speed
DirectionMeteo StationdegRelative wind direction
TemperatureMeteo Stationdeg CelciusAir temperature
PressureMeteo StationPaAtmospheric pressure
HumidityMeteo Station%Relative humidity
Missing or incorrect values are displayed as -999
Metereological data collected by the RV Zeeleeuw from 2005-05-11 08:13:02 to 2005-05-11 10:35:43
                                                                                    Next 1000 lines
Time Latitude Longitude Speed Direction Temperature Pressure Humidity
2005-05-11 08:13:16 51°13.594 2°56.102 2.8 282 9.7 102540 66
2005-05-11 08:13:22 51°13.594 2°56.102 2.8 302 9.7 102540 66
2005-05-11 08:13:27 51°13.594 2°56.102 2.5 279 9.7 102540 66
2005-05-11 08:13:32 51°13.593 2°56.102 2.3 254 9.7 102540 66
2005-05-11 08:16:52 51°13.594 2°56.102 1.5 254 9.7 102540 64
2005-05-11 08:16:57 51°13.594 2°56.102 2.9 281 9.7 102540 64
2005-05-11 08:17:02 51°13.594 2°56.101 2.2 239 9.7 102540 64
2005-05-11 08:17:07 51°13.595 2°56.1 2.7 267 9.7 102540 64
2005-05-11 08:17:12 51°13.595 2°56.1 1.3 243 9.7 102540 64
2005-05-11 08:17:36 51°13.593 2°56.101 2.8 252 9.7 102540 65
2005-05-11 08:17:42 51°13.593 2°56.102 2.6 251 9.7 102540 65
2005-05-11 08:17:47 51°13.592 2°56.102 2.7 256 9.8 102540 65
2005-05-11 08:17:52 51°13.591 2°56.103 3.2 276 9.8 102540 65
2005-05-11 08:17:56 51°13.59 2°56.104 2.2 262 9.8 102540 64
2005-05-11 08:18:02 51°13.589 2°56.106 3.6 258 9.8 102540 64
2005-05-11 08:18:07 51°13.587 2°56.108 4.2 269 9.8 102540 64
2005-05-11 08:18:12 51°13.585 2°56.11 3.4 259 9.8 102540 64
2005-05-11 08:18:16 51°13.584 2°56.111 3.3 254 9.8 102540 64
2005-05-11 08:18:22 51°13.581 2°56.114 3.7 254 9.8 102540 64
2005-05-11 08:18:27 51°13.58 2°56.117 2.4 268 9.8 102540 64
2005-05-11 08:18:32 51°13.577 2°56.12 4.1 274 9.8 102540 64
2005-05-11 08:18:37 51°13.573 2°56.124 2.3 272 9.8 102540 63
2005-05-11 08:18:42 51°13.57 2°56.127 2.4 308 9.8 102540 63
2005-05-11 08:18:47 51°13.567 2°56.131 0.4 229 9.8 102540 63
2005-05-11 08:18:52 51°13.563 2°56.135 0.5 247 9.8 102540 63
2005-05-11 08:18:56 51°13.56 2°56.138 2.4 308 9.8 102540 63
2005-05-11 08:19:02 51°13.554 2°56.143 2.6 311 9.8 102540 63
2005-05-11 08:19:07 51°13.551 2°56.147 3.6 318 9.9 102540 63
2005-05-11 08:19:12 51°13.546 2°56.153 3.1 305 9.9 102540 63
2005-05-11 08:19:17 51°13.543 2°56.158 2.8 310 9.9 102540 64
2005-05-11 08:19:22 51°13.539 2°56.164 3.3 314 9.9 102540 64
2005-05-11 08:19:27 51°13.535 2°56.17 3.6 325 9.9 102540 64
2005-05-11 08:19:32 51°13.532 2°56.176 3.8 344 9.9 102540 64
2005-05-11 08:19:36 51°13.53 2°56.182 3.1 308 9.9 102540 64
2005-05-11 08:19:42 51°13.527 2°56.189 3.4 322 9.9 102540 64
2005-05-11 08:19:47 51°13.526 2°56.195 6.6 336 10 102540 64
2005-05-11 08:19:51 51°13.525 2°56.2 7.4 324 10 102540 64
2005-05-11 08:19:57 51°13.524 2°56.207 6.3 40 10 102540 64
2005-05-11 08:20:02 51°13.523 2°56.214 6.2 322 10 102540 64
2005-05-11 08:20:07 51°13.523 2°56.221 7 330 10 102530 64
2005-05-11 08:20:12 51°13.524 2°56.229 6.3 330 10 102530 64
2005-05-11 08:20:17 51°13.525 2°56.235 5.9 342 10 102530 63
2005-05-11 08:20:22 51°13.526 2°56.241 8.1 345 10 102530 63
2005-05-11 08:20:27 51°13.528 2°56.247 7.7 339 10 102530 62
2005-05-11 08:20:32 51°13.53 2°56.254 5.8 335 10 102530 62
2005-05-11 08:20:36 51°13.531 2°56.257 6.7 348 10 102530 61
2005-05-11 08:20:42 51°13.533 2°56.261 7.3 344 10 102530 61
2005-05-11 08:20:47 51°13.534 2°56.262 5.9 334 10 102530 61
2005-05-11 08:20:52 51°13.534 2°56.262 4.4 350 10 102530 61
2005-05-11 08:20:57 51°13.534 2°56.26 3.1 13 10 102530 61
2005-05-11 08:21:02 51°13.533 2°56.258 2.8 330 10 102530 61
2005-05-11 08:21:07 51°13.533 2°56.256 4.8 345 10 102530 61
2005-05-11 08:21:12 51°13.533 2°56.254 5.2 345 10 102530 61
2005-05-11 08:21:17 51°13.533 2°56.252 5.8 353 10 102530 61
2005-05-11 08:21:23 51°13.533 2°56.253 5.4 3 10 102530 61
2005-05-11 08:21:27 51°13.534 2°56.254 5.7 3 9.9 102530 62
2005-05-11 08:21:32 51°13.536 2°56.255 4.6 5 9.9 102530 62
2005-05-11 08:21:36 51°13.537 2°56.256 4.4 8 9.9 102530 62
2005-05-11 08:21:42 51°13.538 2°56.256 4.6 16 9.9 102530 62
2005-05-11 08:21:47 51°13.539 2°56.256 3.2 32 9.9 102530 62
2005-05-11 08:21:52 51°13.539 2°56.256 2.9 36 9.9 102530 62
2005-05-11 08:21:56 51°13.538 2°56.255 2.3 326 9.9 102530 62
2005-05-11 08:22:02 51°13.537 2°56.252 1.5 321 9.9 102530 62
2005-05-11 08:22:06 51°13.535 2°56.251 3.1 335 9.9 102530 63
2005-05-11 08:22:12 51°13.533 2°56.248 3.7 3 9.9 102530 63
2005-05-11 08:22:17 51°13.532 2°56.247 4.3 -999 9.9 102540 63
2005-05-11 08:22:22 51°13.531 2°56.245 4.4 336 9.9 102540 63
2005-05-11 08:22:27 51°13.53 2°56.244 4.2 348 10 102540 64
2005-05-11 08:22:32 51°13.531 2°56.244 3.3 33 10 102540 64
2005-05-11 08:22:36 51°13.532 2°56.244 2.8 24 10 102540 64
2005-05-11 08:22:42 51°13.535 2°56.243 3.2 9 10 102540 64
2005-05-11 08:22:47 51°13.536 2°56.243 3.6 32 10 102540 64
2005-05-11 08:22:52 51°13.538 2°56.242 3.5 50 10 102540 64
2005-05-11 08:22:56 51°13.54 2°56.241 2.9 43 10 102540 64
2005-05-11 08:23:02 51°13.541 2°56.241 2.5 48 10 102540 64
2005-05-11 08:23:07 51°13.541 2°56.24 2.1 50 10 102540 64
2005-05-11 08:23:12 51°13.539 2°56.24 2 27 10 102540 64
2005-05-11 08:23:16 51°13.538 2°56.24 2.3 46 10 102540 63
2005-05-11 08:23:22 51°13.536 2°56.24 2.2 42 10 102540 63
2005-05-11 08:23:27 51°13.534 2°56.241 3.8 37 10 102540 62
2005-05-11 08:23:32 51°13.532 2°56.242 3 37 10 102540 62
2005-05-11 08:23:36 51°13.531 2°56.242 4 34 10 102540 63
2005-05-11 08:23:43 51°13.529 2°56.243 2.9 26 10 102540 63
2005-05-11 08:23:47 51°13.528 2°56.244 3.6 40 9.9 102540 63
2005-05-11 08:23:52 51°13.527 2°56.245 3.6 44 9.9 102540 63
2005-05-11 08:23:56 51°13.527 2°56.245 3.2 85 9.9 102540 63
2005-05-11 08:24:02 51°13.527 2°56.245 2.9 90 9.9 102540 63
2005-05-11 08:24:12 51°13.527 2°56.245 2.8 41 9.9 102540 64
2005-05-11 08:24:16 51°13.528 2°56.244 3.1 55 9.9 102540 64
2005-05-11 08:24:22 51°13.53 2°56.242 3.4 57 9.9 102540 64
2005-05-11 08:24:27 51°13.531 2°56.239 3.8 62 9.9 102540 65
2005-05-11 08:24:32 51°13.534 2°56.235 4.2 78 9.9 102540 65
2005-05-11 08:24:37 51°13.535 2°56.232 3.1 107 9.9 102540 65
2005-05-11 08:24:42 51°13.537 2°56.227 2.8 85 9.9 102540 65
2005-05-11 08:24:47 51°13.538 2°56.222 3.4 90 9.9 102540 65
2005-05-11 08:24:52 51°13.54 2°56.217 3.1 84 9.9 102540 65
2005-05-11 08:24:57 51°13.541 2°56.211 2.8 80 9.9 102530 65
2005-05-11 08:25:01 51°13.542 2°56.206 3.3 70 9.9 102530 65
2005-05-11 08:25:07 51°13.543 2°56.199 4.1 63 9.9 102540 66
2005-05-11 08:25:12 51°13.544 2°56.192 6.2 61 9.9 102540 66
2005-05-11 08:25:16 51°13.546 2°56.186 7.3 64 10 102540 66
2005-05-11 08:25:22 51°13.548 2°56.179 5.7 85 10 102540 66
2005-05-11 08:25:27 51°13.55 2°56.172 5.5 52 10 102540 66
2005-05-11 08:25:32 51°13.553 2°56.164 6.3 64 10 102540 66
2005-05-11 08:25:36 51°13.555 2°56.157 3.9 53 10 102540 64
2005-05-11 08:25:42 51°13.558 2°56.148 3.7 97 10 102540 64
2005-05-11 08:25:47 51°13.56 2°56.141 3.6 72 9.9 102540 65
2005-05-11 08:25:52 51°13.563 2°56.132 2.5 117 9.9 102540 65
2005-05-11 08:25:56 51°13.565 2°56.125 2.4 95 9.9 102540 65
2005-05-11 08:26:02 51°13.569 2°56.115 3.4 48 9.9 102540 65
2005-05-11 08:26:07 51°13.572 2°56.107 2.7 34 9.9 102540 66
2005-05-11 08:26:12 51°13.575 2°56.097 2.3 82 9.9 102540 66
2005-05-11 08:26:16 51°13.577 2°56.09 5.5 71 9.9 102540 66
2005-05-11 08:26:22 51°13.581 2°56.079 4.4 82 9.9 102540 66
2005-05-11 08:26:27 51°13.584 2°56.071 5.1 62 9.9 102540 66
2005-05-11 08:26:31 51°13.587 2°56.064 6.3 70 9.9 102540 66
2005-05-11 08:26:36 51°13.591 2°56.054 7.2 85 9.9 102540 66
2005-05-11 08:26:42 51°13.595 2°56.045 4.7 69 9.9 102540 66
2005-05-11 08:26:47 51°13.599 2°56.036 3.8 72 9.9 102540 66
2005-05-11 08:26:52 51°13.603 2°56.027 4.7 53 9.9 102540 66
2005-05-11 08:26:56 51°13.607 2°56.018 5.6 39 9.9 102550 65
2005-05-11 08:27:02 51°13.612 2°56.007 5.1 25 9.9 102550 65
2005-05-11 08:27:07 51°13.616 2°55.997 5.5 53 9.9 102540 66
2005-05-11 08:27:12 51°13.62 2°55.986 5.5 33 9.9 102540 66
2005-05-11 08:27:16 51°13.624 2°55.976 6.5 27 9.9 102540 67
2005-05-11 08:27:22 51°13.63 2°55.963 5.6 36 9.9 102540 67
2005-05-11 08:27:27 51°13.634 2°55.953 6.2 36 9.9 102540 66
2005-05-11 08:27:32 51°13.639 2°55.941 4.7 18 9.9 102540 66
2005-05-11 08:27:37 51°13.643 2°55.931 6.7 54 9.9 102540 66
2005-05-11 08:27:42 51°13.648 2°55.92 6.7 27 9.9 102540 66
2005-05-11 08:27:46 51°13.652 2°55.909 5.1 20 9.9 102530 66
2005-05-11 08:27:52 51°13.658 2°55.896 6.5 45 9.9 102530 66
2005-05-11 08:27:56 51°13.662 2°55.887 9 40 9.9 102540 65
2005-05-11 08:28:02 51°13.669 2°55.873 8.5 42 9.9 102540 65
2005-05-11 08:28:07 51°13.673 2°55.863 7.3 47 9.8 102530 65
2005-05-11 08:28:12 51°13.678 2°55.851 6.8 40 9.8 102530 65
2005-05-11 08:28:17 51°13.684 2°55.84 7.1 43 9.8 102530 65
2005-05-11 08:28:22 51°13.69 2°55.828 7.1 42 9.8 102530 65
2005-05-11 08:28:27 51°13.695 2°55.817 6.5 5 9.7 102530 64
2005-05-11 08:28:31 51°13.699 2°55.807 6.5 37 9.7 102530 64
2005-05-11 08:28:37 51°13.705 2°55.794 5.7 26 9.7 102540 64
2005-05-11 08:28:42 51°13.712 2°55.781 6.7 43 9.7 102540 64
2005-05-11 08:28:47 51°13.717 2°55.77 7.4 10 9.7 102540 65
2005-05-11 08:28:52 51°13.723 2°55.758 5.6 27 9.7 102540 65
2005-05-11 08:28:57 51°13.73 2°55.747 7.1 39 9.6 102530 65
2005-05-11 08:29:02 51°13.735 2°55.738 6.9 30 9.6 102530 65
2005-05-11 08:29:07 51°13.742 2°55.728 4.5 15 9.6 102530 65
2005-05-11 08:29:12 51°13.749 2°55.719 5 30 9.6 102530 65
2005-05-11 08:29:16 51°13.754 2°55.712 7.6 51 9.6 102530 65
2005-05-11 08:29:22 51°13.762 2°55.703 6.7 44 9.6 102530 65
2005-05-11 08:29:27 51°13.769 2°55.695 6 15 9.6 102540 65
2005-05-11 08:29:31 51°13.775 2°55.689 7.2 12 9.6 102540 65
2005-05-11 08:29:36 51°13.782 2°55.682 7.5 36 9.5 102530 65
2005-05-11 08:29:40 51°13.787 2°55.676 8.2 37 9.5 102530 65
2005-05-11 08:29:47 51°13.797 2°55.667 7.4 24 9.5 102530 66
2005-05-11 08:29:52 51°13.804 2°55.66 8 27 9.5 102530 66
2005-05-11 08:29:56 51°13.81 2°55.655 7.6 26 9.5 102540 66
2005-05-11 08:30:02 51°13.818 2°55.647 7.1 20 9.5 102540 66
2005-05-11 08:30:07 51°13.825 2°55.641 8.8 17 9.5 102540 66
2005-05-11 08:30:12 51°13.832 2°55.635 8.8 32 9.5 102540 66
2005-05-11 08:30:16 51°13.839 2°55.63 8.9 30 9.5 102540 66
2005-05-11 08:30:22 51°13.848 2°55.623 7.8 33 9.5 102540 66
2005-05-11 08:30:27 51°13.855 2°55.618 8.2 21 9.5 102530 66
2005-05-11 08:30:31 51°13.862 2°55.613 8.2 28 9.5 102530 66
2005-05-11 08:30:37 51°13.872 2°55.607 8.2 38 9.5 102530 66
2005-05-11 08:30:42 51°13.881 2°55.602 7.5 35 9.5 102530 66
2005-05-11 08:30:47 51°13.889 2°55.597 8.1 34 9.4 102540 66
2005-05-11 08:30:52 51°13.898 2°55.591 8.6 35 9.4 102540 66
2005-05-11 08:30:57 51°13.906 2°55.586 9 34 9.4 102530 66
2005-05-11 08:31:02 51°13.915 2°55.58 8.6 36 9.4 102530 66
2005-05-11 08:31:07 51°13.924 2°55.574 7.5 40 9.4 102540 66
2005-05-11 08:31:12 51°13.934 2°55.568 7.1 39 9.4 102540 66
2005-05-11 08:31:17 51°13.942 2°55.562 6.2 35 9.4 102540 66
2005-05-11 08:31:22 51°13.951 2°55.557 7 26 9.4 102540 66
2005-05-11 08:31:27 51°13.96 2°55.551 7 30 9.3 102540 66
2005-05-11 08:31:32 51°13.97 2°55.545 7.2 29 9.3 102540 66
2005-05-11 08:31:37 51°13.978 2°55.54 8.1 34 9.3 102540 67
2005-05-11 08:31:41 51°13.986 2°55.535 7.7 35 9.3 102540 67
2005-05-11 08:31:47 51°13.996 2°55.529 8 28 9.3 102540 67
2005-05-11 08:31:52 51°14.007 2°55.523 8.3 28 9.3 102540 67
2005-05-11 08:31:57 51°14.016 2°55.517 8.8 30 9.3 102530 67
2005-05-11 08:32:02 51°14.025 2°55.512 9.2 33 9.3 102530 67
2005-05-11 08:32:07 51°14.033 2°55.507 9.4 35 9.3 102540 67
2005-05-11 08:32:12 51°14.044 2°55.501 9.2 32 9.3 102540 67
2005-05-11 08:32:17 51°14.052 2°55.497 9.4 24 9.3 102540 66
2005-05-11 08:32:22 51°14.061 2°55.491 8.8 32 9.3 102540 66
2005-05-11 08:32:27 51°14.069 2°55.485 7.6 31 9.2 102530 65
2005-05-11 08:32:31 51°14.077 2°55.48 7.7 29 9.2 102530 65
2005-05-11 08:32:36 51°14.085 2°55.474 8.5 28 9.2 102530 65
2005-05-11 08:32:42 51°14.095 2°55.467 9 36 9.2 102530 65
2005-05-11 08:32:47 51°14.102 2°55.461 7.3 36 9.2 102530 67
2005-05-11 08:32:52 51°14.111 2°55.454 9.7 30 9.2 102530 67
2005-05-11 08:32:56 51°14.117 2°55.449 10.3 37 9.2 102530 67
2005-05-11 08:33:02 51°14.126 2°55.441 9.3 41 9.2 102530 67
2005-05-11 08:33:07 51°14.134 2°55.434 8.4 40 9.2 102530 67
2005-05-11 08:33:11 51°14.141 2°55.428 7.9 39 9.2 102530 67
2005-05-11 08:33:16 51°14.149 2°55.419 6.8 42 9.1 102540 66
2005-05-11 08:33:22 51°14.16 2°55.408 7.4 41 9.1 102540 66
2005-05-11 08:33:27 51°14.168 2°55.4 9 34 9.1 102530 67
2005-05-11 08:33:32 51°14.177 2°55.389 10.2 36 9.1 102530 67
2005-05-11 08:33:37 51°14.185 2°55.38 9.6 37 9.1 102540 68
2005-05-11 08:33:42 51°14.194 2°55.369 9.9 37 9.1 102540 68
2005-05-11 08:33:47 51°14.203 2°55.359 9.1 44 9.1 102530 68
2005-05-11 08:33:52 51°14.213 2°55.346 9.1 37 9.1 102530 68
2005-05-11 08:33:57 51°14.221 2°55.336 7.5 43 9.1 102540 68
2005-05-11 08:34:02 51°14.232 2°55.323 8.6 42 9.1 102540 68
2005-05-11 08:34:07 51°14.24 2°55.313 8.6 28 9.1 102530 66
2005-05-11 08:34:12 51°14.249 2°55.3 7 33 9.1 102530 66
2005-05-11 08:34:17 51°14.258 2°55.287 8.8 31 9.1 102540 67
2005-05-11 08:34:22 51°14.266 2°55.274 8.1 37 9.1 102540 67
2005-05-11 08:34:27 51°14.275 2°55.26 9.1 38 9.1 102540 68
2005-05-11 08:34:31 51°14.281 2°55.249 8.6 49 9.1 102540 68
2005-05-11 08:34:36 51°14.289 2°55.232 9.4 42 9.1 102540 69
2005-05-11 08:34:42 51°14.299 2°55.213 8.4 49 9.1 102540 69
2005-05-11 08:34:47 51°14.306 2°55.198 7.9 41 9.1 102540 67
2005-05-11 08:34:51 51°14.314 2°55.182 9.1 41 9.1 102540 67
2005-05-11 08:34:56 51°14.322 2°55.166 9.8 43 9 102540 66
2005-05-11 08:35:02 51°14.333 2°55.143 7.8 19 9 102540 66
2005-05-11 08:35:07 51°14.341 2°55.125 7.3 34 9 102540 66
2005-05-11 08:35:12 51°14.351 2°55.103 10.3 53 9 102540 66
2005-05-11 08:35:16 51°14.357 2°55.087 10.5 55 9 102540 67
2005-05-11 08:35:22 51°14.366 2°55.061 9.5 60 9 102540 67
2005-05-11 08:35:27 51°14.373 2°55.041 10.1 57 9 102540 68
2005-05-11 08:35:32 51°14.381 2°55.016 10 57 9 102540 68
2005-05-11 08:35:36 51°14.386 2°54.996 9.6 61 9 102540 66
2005-05-11 08:35:42 51°14.393 2°54.968 8.9 61 9 102540 66
2005-05-11 08:35:47 51°14.399 2°54.939 8.3 60 9 102530 66
2005-05-11 08:35:52 51°14.403 2°54.911 8.3 58 9 102530 66
2005-05-11 08:35:57 51°14.405 2°54.885 8.2 58 9 102520 66
2005-05-11 08:36:02 51°14.407 2°54.854 8.3 61 9 102520 66
2005-05-11 08:36:07 51°14.409 2°54.827 7.4 60 9 102530 65
2005-05-11 08:36:12 51°14.412 2°54.795 7.8 57 9 102530 65
2005-05-11 08:36:17 51°14.414 2°54.768 8.6 56 9 102550 65
2005-05-11 08:36:22 51°14.418 2°54.736 8.3 57 9 102550 65
2005-05-11 08:36:27 51°14.421 2°54.708 8.8 54 8.9 102540 65
2005-05-11 08:36:32 51°14.425 2°54.679 8.9 53 8.9 102540 65
2005-05-11 08:36:37 51°14.431 2°54.647 10.1 53 8.9 102550 66
2005-05-11 08:36:42 51°14.436 2°54.618 9.4 57 8.9 102550 66
2005-05-11 08:36:47 51°14.441 2°54.591 10.1 60 8.9 102540 66
2005-05-11 08:36:52 51°14.447 2°54.562 10.5 54 8.9 102540 66
2005-05-11 08:36:57 51°14.452 2°54.529 11 45 8.9 102540 67
2005-05-11 08:37:02 51°14.459 2°54.5 11.5 52 8.9 102540 67
2005-05-11 08:37:07 51°14.465 2°54.474 11.5 45 8.9 102550 67
2005-05-11 08:37:12 51°14.472 2°54.445 11.7 48 8.9 102550 67
2005-05-11 08:37:16 51°14.478 2°54.419 11.4 53 8.9 102540 68
2005-05-11 08:37:22 51°14.486 2°54.384 10.6 54 8.9 102540 68
2005-05-11 08:37:27 51°14.492 2°54.357 11.2 52 8.9 102540 68
2005-05-11 08:37:32 51°14.499 2°54.328 10.6 53 8.9 102540 68
2005-05-11 08:37:36 51°14.505 2°54.303 10.6 48 8.9 102540 66
2005-05-11 08:37:42 51°14.516 2°54.269 10.9 38 8.9 102540 66
2005-05-11 08:37:47 51°14.525 2°54.245 10.7 40 8.9 102530 67
2005-05-11 08:37:52 51°14.535 2°54.216 10.7 41 8.9 102530 67
2005-05-11 08:37:56 51°14.543 2°54.195 11.5 40 8.9 102520 67
2005-05-11 08:38:00 51°14.552 2°54.174 11.6 42 8.9 102520 67
2005-05-11 08:38:07 51°14.566 2°54.141 11.7 40 8.9 102540 65
2005-05-11 08:38:12 51°14.578 2°54.114 12.4 34 8.9 102540 65
2005-05-11 08:38:17 51°14.589 2°54.093 11.8 39 8.9 102540 65
2005-05-11 08:38:22 51°14.6 2°54.068 11.4 39 8.9 102540 65
2005-05-11 08:38:27 51°14.611 2°54.043 12.6 37 8.9 102530 65
2005-05-11 08:38:32 51°14.623 2°54.016 12.7 40 8.9 102530 65
2005-05-11 08:38:37 51°14.634 2°53.994 12 40 8.9 102530 66
2005-05-11 08:38:42 51°14.645 2°53.968 11.3 42 8.9 102530 66
2005-05-11 08:38:47 51°14.655 2°53.943 11.8 41 8.8 102540 64
2005-05-11 08:38:52 51°14.667 2°53.916 11.3 42 8.8 102540 64
2005-05-11 08:38:56 51°14.676 2°53.895 11.5 42 8.8 102540 64
2005-05-11 08:39:02 51°14.688 2°53.868 11.4 41 8.8 102540 64
2005-05-11 08:39:07 51°14.699 2°53.843 10.8 43 8.9 102540 64
2005-05-11 08:39:12 51°14.71 2°53.818 10.9 42 8.9 102540 64
2005-05-11 08:39:17 51°14.72 2°53.793 10.8 42 8.9 102540 65
2005-05-11 08:39:22 51°14.732 2°53.766 10.8 45 8.9 102540 65
2005-05-11 08:39:27 51°14.741 2°53.743 11.5 44 8.8 102540 64
2005-05-11 08:39:31 51°14.749 2°53.723 10.9 44 8.8 102540 64
2005-05-11 08:39:37 51°14.763 2°53.69 10.3 48 8.8 102530 64
2005-05-11 08:39:42 51°14.773 2°53.664 10.7 47 8.8 102530 64
2005-05-11 08:39:47 51°14.782 2°53.642 10.2 50 8.9 102540 66
2005-05-11 08:39:52 51°14.794 2°53.613 9.5 49 8.9 102540 66
2005-05-11 08:39:56 51°14.802 2°53.593 10.4 52 8.8 102540 64
2005-05-11 08:40:02 51°14.814 2°53.564 9.6 45 8.8 102540 64
2005-05-11 08:40:07 51°14.823 2°53.543 9.1 48 8.8 102540 64
2005-05-11 08:40:12 51°14.832 2°53.521 10.1 50 8.8 102540 64
2005-05-11 08:40:17 51°14.842 2°53.499 9 52 8.9 102540 65
2005-05-11 08:40:22 51°14.851 2°53.477 9.4 57 8.9 102540 65
2005-05-11 08:40:27 51°14.858 2°53.458 8.8 64 8.9 102540 65
2005-05-11 08:40:32 51°14.865 2°53.435 8 58 8.9 102540 65
2005-05-11 08:40:37 51°14.871 2°53.416 7.9 65 8.9 102540 64
2005-05-11 08:40:42 51°14.876 2°53.394 7.3 64 8.9 102540 64
2005-05-11 08:40:47 51°14.88 2°53.373 7.5 64 8.9 102550 65
2005-05-11 08:40:52 51°14.884 2°53.353 7.4 66 8.9 102550 65
2005-05-11 08:40:57 51°14.888 2°53.336 7.2 63 8.9 102540 66
2005-05-11 08:41:01 51°14.891 2°53.318 7.5 74 8.9 102540 66
2005-05-11 08:41:07 51°14.895 2°53.297 7.4 72 8.9 102540 68
2005-05-11 08:41:12 51°14.899 2°53.276 7.6 65 8.9 102540 68
2005-05-11 08:41:16 51°14.902 2°53.261 7.4 65 8.9 102540 68
2005-05-11 08:41:22 51°14.906 2°53.241 8.4 63 8.9 102540 68
2005-05-11 08:41:27 51°14.909 2°53.223 8.3 56 8.9 102550 66
2005-05-11 08:41:32 51°14.913 2°53.202 8.5 59 8.9 102550 66
2005-05-11 08:41:37 51°14.916 2°53.186 8.2 60 8.9 102540 68
2005-05-11 08:41:42 51°14.919 2°53.168 8.7 62 8.9 102540 68
2005-05-11 08:41:47 51°14.923 2°53.151 9 59 9 102540 68
2005-05-11 08:41:52 51°14.926 2°53.133 8 61 9 102540 68
2005-05-11 08:41:57 51°14.929 2°53.115 8.5 59 8.9 102550 68
2005-05-11 08:42:02 51°14.933 2°53.096 8 66 8.9 102550 68
2005-05-11 08:42:07 51°14.936 2°53.08 8.3 65 8.9 102540 67
2005-05-11 08:42:11 51°14.939 2°53.065 7.7 65 8.9 102540 67
2005-05-11 08:42:16 51°14.942 2°53.047 6.7 69 8.9 102540 66
2005-05-11 08:42:22 51°14.946 2°53.026 5.9 77 8.9 102540 66
2005-05-11 08:42:27 51°14.947 2°53.01 5.7 77 8.9 102550 65
2005-05-11 08:42:32 51°14.949 2°52.992 6.8 81 8.9 102550 65
2005-05-11 08:42:36 51°14.949 2°52.975 6.5 82 8.9 102540 65
2005-05-11 08:42:42 51°14.949 2°52.953 5.5 79 8.9 102540 65
2005-05-11 08:42:47 51°14.949 2°52.936 6.6 84 8.9 102540 66
2005-05-11 08:42:52 51°14.948 2°52.916 6.1 84 8.9 102540 66
2005-05-11 08:42:56 51°14.947 2°52.901 5.8 87 8.9 102540 67
2005-05-11 08:43:02 51°14.945 2°52.88 5.5 90 8.9 102540 67
2005-05-11 08:43:07 51°14.943 2°52.862 5.2 89 8.9 102550 67
2005-05-11 08:43:11 51°14.941 2°52.847 5.4 90 8.9 102550 67
2005-05-11 08:43:16 51°14.939 2°52.826 4.7 95 8.9 102550 68
2005-05-11 08:43:22 51°14.936 2°52.805 5.3 94 8.9 102550 68
2005-05-11 08:43:27 51°14.933 2°52.786 4.5 90 8.9 102560 68
2005-05-11 08:43:32 51°14.93 2°52.766 4.9 96 8.9 102560 68
2005-05-11 08:43:36 51°14.928 2°52.75 5.2 95 9 102550 68
2005-05-11 08:43:42 51°14.925 2°52.73 4.2 91 9 102550 68
2005-05-11 08:43:47 51°14.922 2°52.71 5.3 89 9 102550 67
2005-05-11 08:43:52 51°14.92 2°52.689 5.9 95 9 102550 67
2005-05-11 08:43:56 51°14.918 2°52.674 5.3 96 9 102560 67
2005-05-11 08:44:02 51°14.916 2°52.651 5 95 9 102560 67
2005-05-11 08:44:07 51°14.914 2°52.635 6 94 9 102560 67
2005-05-11 08:44:12 51°14.912 2°52.615 5.7 95 9 102560 67
2005-05-11 08:44:16 51°14.91 2°52.598 5.8 97 9 102560 67
2005-05-11 08:44:22 51°14.908 2°52.577 6.1 103 9 102560 67
2005-05-11 08:44:27 51°14.907 2°52.557 6.1 92 9 102550 66
2005-05-11 08:44:32 51°14.904 2°52.536 5.8 95 9 102550 66
2005-05-11 08:44:36 51°14.903 2°52.521 6.5 96 9 102560 65
2005-05-11 08:44:43 51°14.9 2°52.495 7 87 9 102560 65
2005-05-11 08:44:47 51°14.899 2°52.48 6.5 93 9 102550 66
2005-05-11 08:44:52 51°14.897 2°52.459 6.6 90 9 102550 66
2005-05-11 08:44:56 51°14.895 2°52.443 6.2 88 9.1 102550 67
2005-05-11 08:45:02 51°14.893 2°52.422 5.8 95 9.1 102550 67
2005-05-11 08:45:07 51°14.892 2°52.403 5.4 93 9.1 102560 66
2005-05-11 08:45:12 51°14.89 2°52.381 6 91 9.1 102560 66
2005-05-11 08:45:16 51°14.888 2°52.365 6.1 89 9.1 102550 67
2005-05-11 08:45:22 51°14.886 2°52.344 5.2 93 9.1 102550 67
2005-05-11 08:45:27 51°14.884 2°52.325 5.3 91 9.1 102550 65
2005-05-11 08:45:32 51°14.883 2°52.303 6.4 92 9.1 102550 65
2005-05-11 08:45:36 51°14.881 2°52.288 5.2 96 9.1 102560 67
2005-05-11 08:45:40 51°14.88 2°52.272 6 96 9.1 102560 67
2005-05-11 08:45:47 51°14.877 2°52.246 5.7 89 9.2 102550 68
2005-05-11 08:45:52 51°14.875 2°52.225 4.8 96 9.2 102550 68
2005-05-11 08:45:56 51°14.873 2°52.209 5.6 92 9.1 102560 67
2005-05-11 08:46:03 51°14.871 2°52.184 5.6 88 9.1 102560 67
2005-05-11 08:46:07 51°14.87 2°52.168 6.7 77 9.2 102560 66
2005-05-11 08:46:11 51°14.868 2°52.152 6.1 83 9.2 102560 66
2005-05-11 08:46:16 51°14.866 2°52.13 7.2 82 9.1 102550 66
2005-05-11 08:46:22 51°14.864 2°52.107 5 80 9.1 102550 66
2005-05-11 08:46:27 51°14.862 2°52.089 7.2 86 9.2 102550 68
2005-05-11 08:46:32 51°14.86 2°52.068 6.6 83 9.2 102550 68
2005-05-11 08:46:36 51°14.858 2°52.052 6.9 86 9.2 102550 68
2005-05-11 08:46:42 51°14.856 2°52.028 6.2 81 9.2 102550 68
2005-05-11 08:46:47 51°14.854 2°52.01 6.2 82 9.2 102550 68
2005-05-11 08:46:52 51°14.852 2°51.991 7.1 83 9.2 102550 68
2005-05-11 08:46:57 51°14.849 2°51.969 6.2 82 9.2 102550 66
2005-05-11 08:47:02 51°14.848 2°51.951 7.4 -999 9.2 102550 66
2005-05-11 08:47:07 51°14.846 2°51.93 6.6 81 9.1 102550 65
2005-05-11 08:47:12 51°14.843 2°51.906 5.5 81 9.1 102550 65
2005-05-11 08:47:17 51°14.841 2°51.885 6.2 75 9.2 102550 66
2005-05-11 08:47:22 51°14.839 2°51.86 5.6 75 9.2 102550 66
2005-05-11 08:47:27 51°14.837 2°51.835 6.1 70 9.1 102550 65
2005-05-11 08:47:32 51°14.834 2°51.806 6.8 61 9.1 102550 65
2005-05-11 08:47:37 51°14.832 2°51.782 7 67 9.1 102550 65
2005-05-11 08:47:42 51°14.829 2°51.754 6.2 68 9.1 102550 65
2005-05-11 08:47:47 51°14.827 2°51.727 6 63 9.1 102550 64
2005-05-11 08:47:51 51°14.825 2°51.701 7 62 9.1 102550 64
2005-05-11 08:47:57 51°14.822 2°51.669 6.7 60 9.1 102550 64
2005-05-11 08:48:02 51°14.819 2°51.637 7.8 -999 9.1 102550 64
2005-05-11 08:48:07 51°14.817 2°51.61 7.8 57 9.1 102550 63
2005-05-11 08:48:12 51°14.813 2°51.581 7.2 59 9.1 102550 63
2005-05-11 08:48:17 51°14.809 2°51.552 7.3 64 9 102550 64
2005-05-11 08:48:22 51°14.803 2°51.52 7.5 63 9 102550 64
2005-05-11 08:48:27 51°14.798 2°51.494 7.2 64 9 102540 65
2005-05-11 08:48:32 51°14.791 2°51.462 7.2 67 9 102540 65
2005-05-11 08:48:37 51°14.785 2°51.436 6.8 62 9.1 102550 66
2005-05-11 08:48:42 51°14.778 2°51.405 6.9 66 9.1 102550 66
2005-05-11 08:48:47 51°14.771 2°51.375 6.1 66 9 102550 64
2005-05-11 08:48:52 51°14.765 2°51.349 6.3 70 9 102550 64
2005-05-11 08:48:57 51°14.758 2°51.321 6.3 65 9 102550 63
2005-05-11 08:49:02 51°14.75 2°51.288 6 -999 9 102550 63
2005-05-11 08:49:07 51°14.744 2°51.263 5.2 60 9 102550 62
2005-05-11 08:49:12 51°14.737 2°51.231 5.9 64 9 102550 62
2005-05-11 08:49:17 51°14.73 2°51.205 6.3 62 9 102550 62
2005-05-11 08:49:22 51°14.723 2°51.173 6.6 65 9 102550 62
2005-05-11 08:49:27 51°14.716 2°51.144 5.5 68 9 102550 63
2005-05-11 08:49:32 51°14.708 2°51.116 5.3 67 9 102550 63
2005-05-11 08:49:37 51°14.7 2°51.088 5.2 70 9 102560 63
2005-05-11 08:49:42 51°14.692 2°51.06 5.7 67 9 102560 63
2005-05-11 08:49:47 51°14.684 2°51.035 4.9 69 8.9 102550 62
2005-05-11 08:49:52 51°14.675 2°51.004 4.7 74 8.9 102550 62
2005-05-11 08:49:57 51°14.666 2°50.981 4.1 71 8.9 102560 61
2005-05-11 08:50:02 51°14.656 2°50.95 4.5 70 8.9 102560 61
2005-05-11 08:50:07 51°14.647 2°50.927 4.3 70 8.9 102560 61
2005-05-11 08:50:12 51°14.638 2°50.899 4.4 73 8.9 102560 61
2005-05-11 08:50:16 51°14.63 2°50.875 5.6 80 8.9 102560 60
2005-05-11 08:50:22 51°14.618 2°50.843 3.6 75 8.9 102560 60
2005-05-11 08:50:27 51°14.61 2°50.819 4.2 64 8.9 102560 62
2005-05-11 08:50:32 51°14.599 2°50.789 4.8 75 8.9 102560 62
2005-05-11 08:50:36 51°14.592 2°50.767 3.9 75 9 102560 62
2005-05-11 08:50:42 51°14.581 2°50.735 4.6 68 9 102560 62
2005-05-11 08:50:47 51°14.572 2°50.71 4.2 69 8.9 102560 62
2005-05-11 08:50:51 51°14.565 2°50.688 4 68 8.9 102560 62
2005-05-11 08:50:56 51°14.556 2°50.658 4.2 78 8.9 102560 61
2005-05-11 08:51:02 51°14.545 2°50.627 3.5 -999 8.9 102560 61
2005-05-11 08:51:07 51°14.537 2°50.604 3.9 71 8.9 102560 61
2005-05-11 08:51:11 51°14.53 2°50.58 4 77 8.9 102560 61
2005-05-11 08:51:16 51°14.521 2°50.555 4.2 82 9 102560 61
2005-05-11 08:51:22 51°14.513 2°50.528 3.7 83 9 102560 61
2005-05-11 08:51:27 51°14.504 2°50.502 4.1 85 8.9 102560 62
2005-05-11 08:51:32 51°14.497 2°50.478 4 78 8.9 102560 62
2005-05-11 08:51:36 51°14.489 2°50.456 3.8 81 9 102560 63
2005-05-11 08:51:42 51°14.48 2°50.426 4.7 84 9 102560 63
2005-05-11 08:51:47 51°14.472 2°50.405 4.5 83 8.9 102560 61
2005-05-11 08:51:52 51°14.463 2°50.378 4.1 89 8.9 102560 61
2005-05-11 08:51:56 51°14.457 2°50.358 3.8 71 9 102560 64
2005-05-11 08:52:02 51°14.448 2°50.331 4.8 -999 9 102560 64
2005-05-11 08:52:07 51°14.44 2°50.307 3.9 77 9 102560 64
2005-05-11 08:52:12 51°14.431 2°50.281 3.7 76 9 102560 64
2005-05-11 08:52:17 51°14.423 2°50.257 4.5 88 9 102560 65
2005-05-11 08:52:22 51°14.416 2°50.235 4.6 79 9 102560 65
2005-05-11 08:52:27 51°14.407 2°50.209 4.8 81 9 102560 67
2005-05-11 08:52:32 51°14.399 2°50.185 5.3 83 9 102560 67
2005-05-11 08:52:36 51°14.393 2°50.165 5 90 9.1 102560 68
2005-05-11 08:52:42 51°14.384 2°50.137 4.6 85 9.1 102560 68
2005-05-11 08:52:47 51°14.377 2°50.115 4.9 90 9.1 102560 68
2005-05-11 08:52:51 51°14.37 2°50.094 4.4 84 9.1 102560 68
2005-05-11 08:52:56 51°14.362 2°50.07 4.7 85 9 102560 66
2005-05-11 08:53:02 51°14.352 2°50.041 4.5 -999 9 102560 66
2005-05-11 08:53:07 51°14.345 2°50.019 3.8 84 9 102560 65
2005-05-11 08:53:10 51°14.339 2°50.003 5 85 9 102560 65
2005-05-11 08:53:17 51°14.328 2°49.972 2.7 87 9 102560 66
2005-05-11 08:53:22 51°14.321 2°49.944 3.9 88 9 102560 66
2005-05-11 08:53:27 51°14.312 2°49.924 2.8 84 9 102560 66
2005-05-11 08:53:32 51°14.304 2°49.897 4.6 86 9 102560 66
2005-05-11 08:53:37 51°14.297 2°49.876 3 82 9 102560 67
2005-05-11 08:53:42 51°14.288 2°49.849 4.5 86 9 102560 67
2005-05-11 08:53:47 51°14.281 2°49.828 3.9 88 9 102570 67
2005-05-11 08:53:52 51°14.272 2°49.802 3.9 85 9 102570 67
2005-05-11 08:53:57 51°14.264 2°49.78 3.8 88 9 102560 66
2005-05-11 08:54:02 51°14.255 2°49.754 2.8 -999 9 102560 66
2005-05-11 08:54:06 51°14.249 2°49.735 4.2 90 9 102570 66
2005-05-11 08:54:12 51°14.239 2°49.707 2.1 82 9 102570 66
2005-05-11 08:54:16 51°14.233 2°49.688 3.4 90 9 102560 66
2005-05-11 08:54:22 51°14.224 2°49.662 2.9 89 9 102560 66
2005-05-11 08:54:27 51°14.216 2°49.638 3.3 71 9 102570 66
2005-05-11 08:54:32 51°14.207 2°49.612 3 79 9 102570 66
2005-05-11 08:54:37 51°14.199 2°49.59 3 79 9 102560 66
2005-05-11 08:54:42 51°14.191 2°49.566 3.1 75 9 102560 66
2005-05-11 08:54:47 51°14.183 2°49.542 4.5 70 9 102570 66
2005-05-11 08:54:52 51°14.174 2°49.516 4.4 89 9 102570 66
2005-05-11 08:54:57 51°14.168 2°49.495 4.6 87 9 102560 67
2005-05-11 08:55:02 51°14.158 2°49.469 4.1 -999 9 102560 67
2005-05-11 08:55:07 51°14.152 2°49.447 4.9 88 9.1 102570 69
2005-05-11 08:55:12 51°14.144 2°49.424 3.9 82 9.1 102570 69
2005-05-11 08:55:16 51°14.137 2°49.402 5.3 83 9.1 102560 70
2005-05-11 08:55:22 51°14.127 2°49.374 3.9 93 9.1 102560 70
2005-05-11 08:55:27 51°14.121 2°49.353 4.5 89 9.1 102570 70
2005-05-11 08:55:32 51°14.112 2°49.326 4.8 86 9.1 102570 70
2005-05-11 08:55:36 51°14.105 2°49.307 4.8 81 9.1 102570 69
2005-05-11 08:55:42 51°14.097 2°49.279 5.7 85 9.1 102570 69
2005-05-11 08:55:47 51°14.089 2°49.257 4.6 83 9.1 102560 68
2005-05-11 08:55:52 51°14.081 2°49.23 5.1 84 9.1 102560 68
2005-05-11 08:55:57 51°14.073 2°49.21 4.1 83 9.1 102570 68
2005-05-11 08:56:02 51°14.064 2°49.184 4.1 -999 9.1 102570 68
2005-05-11 08:56:07 51°14.057 2°49.162 3 81 9.1 102560 66
2005-05-11 08:56:12 51°14.049 2°49.139 3.9 79 9.1 102560 66
2005-05-11 08:56:16 51°14.041 2°49.118 4.5 93 9.1 102560 66
2005-05-11 08:56:22 51°14.03 2°49.089 4.4 92 9.1 102560 66
2005-05-11 08:56:27 51°14.022 2°49.068 5 85 9 102560 66
2005-05-11 08:56:32 51°14.013 2°49.043 4.3 82 9 102560 66
2005-05-11 08:56:36 51°14.006 2°49.024 3.6 80 9.1 102560 66
2005-05-11 08:56:42 51°13.996 2°48.998 5 86 9.1 102560 66
2005-05-11 08:56:47 51°13.988 2°48.974 4.8 94 9.1 102560 66
2005-05-11 08:56:51 51°13.981 2°48.955 4 93 9.1 102560 66
2005-05-11 08:56:56 51°13.971 2°48.93 4.9 85 9.1 102570 67
2005-05-11 08:57:02 51°13.96 2°48.902 3.9 -999 9.1 102570 67
2005-05-11 08:57:07 51°13.953 2°48.88 4.8 83 9.1 102570 66
2005-05-11 08:57:12 51°13.943 2°48.855 4.2 84 9.1 102570 66
2005-05-11 08:57:17 51°13.935 2°48.831 4.8 82 9.1 102560 65
2005-05-11 08:57:22 51°13.925 2°48.808 4 94 9.1 102560 65
2005-05-11 08:57:27 51°13.918 2°48.786 4 78 9.1 102560 65
2005-05-11 08:57:32 51°13.908 2°48.761 4.5 80 9.1 102560 65
2005-05-11 08:57:36 51°13.901 2°48.741 5 96 9.1 102560 65
2005-05-11 08:57:42 51°13.89 2°48.714 5 93 9.1 102560 65
2005-05-11 08:57:47 51°13.883 2°48.692 5.5 98 9.1 102570 66
2005-05-11 08:57:52 51°13.874 2°48.669 5.2 94 9.1 102570 66
2005-05-11 08:57:56 51°13.866 2°48.648 4 80 9.1 102570 66
2005-05-11 08:58:02 51°13.855 2°48.619 5 93 9.1 102570 66
2005-05-11 08:58:07 51°13.847 2°48.598 4.4 102 9.1 102570 65
2005-05-11 08:58:12 51°13.838 2°48.572 4.9 110 9.1 102570 65
2005-05-11 08:58:16 51°13.83 2°48.554 4.1 95 9.1 102570 66
2005-05-11 08:58:22 51°13.822 2°48.528 4.4 108 9.1 102570 66
2005-05-11 08:58:27 51°13.813 2°48.507 5.1 104 9.1 102570 67
2005-05-11 08:58:31 51°13.808 2°48.49 5.2 90 9.1 102570 67
2005-05-11 08:58:37 51°13.801 2°48.466 5.3 96 9.2 102570 66
2005-05-11 08:58:40 51°13.797 2°48.453 7.1 96 9.2 102570 66
2005-05-11 08:58:47 51°13.793 2°48.428 6.3 94 9.1 102570 65
2005-05-11 08:58:52 51°13.79 2°48.409 7.1 93 9.1 102570 65
2005-05-11 08:58:56 51°13.788 2°48.396 6.7 92 9.1 102560 65
2005-05-11 08:59:02 51°13.786 2°48.377 6.8 86 9.1 102560 65
2005-05-11 08:59:07 51°13.786 2°48.363 7.1 85 9.2 102560 66
2005-05-11 08:59:12 51°13.785 2°48.348 6.5 83 9.2 102560 66
2005-05-11 08:59:17 51°13.785 2°48.333 5.9 79 9.1 102560 65
2005-05-11 08:59:22 51°13.784 2°48.319 6.1 82 9.1 102560 65
2005-05-11 08:59:27 51°13.784 2°48.307 6.6 81 9.1 102570 65
2005-05-11 08:59:32 51°13.783 2°48.293 6.9 84 9.1 102570 65
2005-05-11 08:59:36 51°13.783 2°48.284 7.3 84 9.1 102560 64
2005-05-11 08:59:41 51°13.783 2°48.273 6.6 83 9.1 102560 64
2005-05-11 08:59:47 51°13.783 2°48.261 6.9 84 9.1 102560 65
2005-05-11 08:59:52 51°13.782 2°48.249 6.1 81 9.1 102560 65
2005-05-11 08:59:56 51°13.782 2°48.241 6.6 82 9.1 102560 64
2005-05-11 09:00:02 51°13.782 2°48.231 4.8 79 9.1 102560 64
2005-05-11 09:00:07 51°13.782 2°48.224 5.8 79 9.1 102560 64
2005-05-11 09:00:11 51°13.781 2°48.219 5 72 9.1 102560 64
2005-05-11 09:00:16 51°13.78 2°48.212 4.9 72 9.1 102560 64
2005-05-11 09:00:20 51°13.78 2°48.207 5 70 9.1 102560 64
2005-05-11 09:00:27 51°13.778 2°48.201 5 71 9.1 102560 66
2005-05-11 09:00:31 51°13.777 2°48.196 4.7 70 9.1 102560 66
2005-05-11 09:00:37 51°13.774 2°48.191 4.6 72 9.1 102570 66
2005-05-11 09:00:42 51°13.772 2°48.186 4.9 68 9.1 102570 66
2005-05-11 09:00:47 51°13.77 2°48.183 5 73 9.1 102560 65
2005-05-11 09:00:51 51°13.768 2°48.179 5.8 78 9.1 102560 65
2005-05-11 09:00:56 51°13.765 2°48.175 5.9 67 9.1 102570 65
2005-05-11 09:01:02 51°13.763 2°48.17 5.3 76 9.1 102570 65
2005-05-11 09:01:07 51°13.761 2°48.166 5.6 73 9.1 102560 65
2005-05-11 09:01:12 51°13.759 2°48.162 5.8 72 9.1 102560 65
2005-05-11 09:01:16 51°13.757 2°48.158 5.6 74 9.1 102560 66
2005-05-11 09:01:22 51°13.755 2°48.153 5.8 80 9.1 102560 66
2005-05-11 09:01:26 51°13.754 2°48.149 5.3 79 9.1 102560 68
2005-05-11 09:01:32 51°13.752 2°48.143 6.7 82 9.1 102560 68
2005-05-11 09:01:37 51°13.75 2°48.137 5.8 81 9.1 102560 66
2005-05-11 09:01:42 51°13.749 2°48.131 6.4 79 9.1 102560 66
2005-05-11 09:01:47 51°13.748 2°48.125 5.4 80 9 102560 64
2005-05-11 09:01:52 51°13.748 2°48.117 6.1 74 9 102560 64
2005-05-11 09:01:57 51°13.748 2°48.11 7.9 67 9 102560 64
2005-05-11 09:02:02 51°13.749 2°48.102 7.7 57 9 102560 64
2005-05-11 09:02:07 51°13.75 2°48.095 7.4 42 9 102560 64
2005-05-11 09:02:12 51°13.753 2°48.086 7.8 46 9 102560 64
2005-05-11 09:02:16 51°13.755 2°48.08 7.4 38 9 102560 64
2005-05-11 09:02:22 51°13.758 2°48.072 9 31 9 102560 64
2005-05-11 09:02:27 51°13.761 2°48.068 8.4 31 9.1 102560 67
2005-05-11 09:02:31 51°13.764 2°48.064 8.1 28 9.1 102560 67
2005-05-11 09:02:36 51°13.767 2°48.06 7.7 26 9.1 102570 69
2005-05-11 09:02:42 51°13.769 2°48.054 7.1 19 9.1 102570 69
2005-05-11 09:02:47 51°13.77 2°48.051 6.7 21 9.1 102560 67
2005-05-11 09:02:51 51°13.771 2°48.048 6.7 24 9.1 102560 67
2005-05-11 09:02:56 51°13.772 2°48.044 6.9 19 9.1 102560 67
2005-05-11 09:03:02 51°13.773 2°48.04 6.3 15 9.1 102560 67
2005-05-11 09:03:07 51°13.773 2°48.037 7.2 19 9.1 102560 66
2005-05-11 09:03:12 51°13.773 2°48.034 6.9 21 9.1 102560 66
2005-05-11 09:03:16 51°13.773 2°48.031 6.6 22 9.2 102570 67
2005-05-11 09:03:22 51°13.773 2°48.027 7.1 18 9.2 102570 67
2005-05-11 09:03:27 51°13.773 2°48.024 7 12 9.2 102570 67
2005-05-11 09:03:31 51°13.773 2°48.021 6.8 9 9.2 102570 67
2005-05-11 09:03:37 51°13.772 2°48.018 5.6 12 9.2 102560 64
2005-05-11 09:03:41 51°13.772 2°48.015 5.8 358 9.2 102560 64
2005-05-11 09:03:47 51°13.772 2°48.012 6.3 357 9.2 102560 63
2005-05-11 09:03:51 51°13.772 2°48.01 6.5 1 9.2 102560 63
2005-05-11 09:03:56 51°13.772 2°48.006 6.8 2 9.2 102560 62
2005-05-11 09:04:02 51°13.771 2°48.003 6.7 2 9.2 102560 62
2005-05-11 09:04:07 51°13.771 2°48 6.3 359 9.2 102570 63
2005-05-11 09:04:12 51°13.77 2°47.997 6.3 1 9.2 102570 63
2005-05-11 09:04:18 51°13.77 2°47.994 6 1 9.2 102560 63
2005-05-11 09:04:22 51°13.769 2°47.991 6.4 359 9.2 102560 63
2005-05-11 09:04:27 51°13.769 2°47.988 6.2 356 9.2 102570 62
2005-05-11 09:04:31 51°13.768 2°47.986 6.3 358 9.2 102570 62
2005-05-11 09:04:36 51°13.768 2°47.983 6 355 9.2 102560 62
2005-05-11 09:04:42 51°13.767 2°47.98 5.7 355 9.2 102560 62
2005-05-11 09:04:47 51°13.767 2°47.977 6 352 9.2 102560 63
2005-05-11 09:04:51 51°13.766 2°47.975 5.5 354 9.2 102560 63
2005-05-11 09:04:56 51°13.765 2°47.972 5.7 350 9.2 102560 63
2005-05-11 09:05:02 51°13.764 2°47.969 5.3 348 9.2 102560 63
2005-05-11 09:05:07 51°13.763 2°47.966 5.2 352 9.2 102560 62
2005-05-11 09:05:11 51°13.763 2°47.964 5.5 359 9.2 102560 62
2005-05-11 09:05:16 51°13.762 2°47.961 5.6 -999 9.2 102560 63
2005-05-11 09:05:22 51°13.761 2°47.958 5.8 356 9.2 102560 63
2005-05-11 09:05:27 51°13.76 2°47.955 5.6 356 9.2 102560 63
2005-05-11 09:05:32 51°13.759 2°47.953 6 359 9.2 102560 63
2005-05-11 09:05:36 51°13.759 2°47.95 5.9 359 9.2 102560 63
2005-05-11 09:05:42 51°13.758 2°47.947 5.5 355 9.2 102560 63
2005-05-11 09:05:47 51°13.757 2°47.945 5.4 355 9.2 102560 63
2005-05-11 09:05:52 51°13.756 2°47.943 5.3 352 9.2 102560 63
2005-05-11 09:05:57 51°13.755 2°47.94 5.2 352 9.2 102570 63
2005-05-11 09:06:02 51°13.754 2°47.938 5.6 354 9.2 102570 63
2005-05-11 09:06:07 51°13.754 2°47.935 5 352 9.3 102560 63
2005-05-11 09:06:12 51°13.752 2°47.932 5.5 348 9.3 102560 63
2005-05-11 09:06:16 51°13.751 2°47.931 4.9 345 9.3 102570 63
2005-05-11 09:06:22 51°13.75 2°47.928 5.4 351 9.3 102570 63
2005-05-11 09:06:26 51°13.75 2°47.926 5.4 348 9.3 102560 64
2005-05-11 09:06:32 51°13.748 2°47.923 5.2 348 9.3 102560 64
2005-05-11 09:06:36 51°13.747 2°47.921 5.2 349 9.3 102570 65
2005-05-11 09:06:42 51°13.746 2°47.918 5.4 343 9.3 102570 65
2005-05-11 09:06:47 51°13.745 2°47.916 5.1 345 9.3 102560 65
2005-05-11 09:06:51 51°13.744 2°47.914 5.6 337 9.3 102560 65
2005-05-11 09:06:56 51°13.743 2°47.912 5.5 346 9.3 102570 65
2005-05-11 09:07:02 51°13.741 2°47.909 5.3 344 9.3 102570 65
2005-05-11 09:07:07 51°13.74 2°47.907 5.4 348 9.4 102560 66
2005-05-11 09:07:12 51°13.739 2°47.905 5.7 346 9.4 102560 66
2005-05-11 09:07:16 51°13.738 2°47.903 6 342 9.4 102560 66
2005-05-11 09:07:22 51°13.736 2°47.901 6.5 341 9.4 102560 66
2005-05-11 09:07:27 51°13.735 2°47.899 5.8 340 9.4 102560 66
2005-05-11 09:07:32 51°13.734 2°47.897 6.5 337 9.4 102560 66
2005-05-11 09:07:37 51°13.733 2°47.895 6.2 333 9.4 102570 66
2005-05-11 09:07:42 51°13.731 2°47.893 6.2 338 9.4 102570 66
2005-05-11 09:07:47 51°13.73 2°47.891 5.7 343 9.5 102560 66
2005-05-11 09:07:51 51°13.728 2°47.889 6.7 336 9.5 102560 66
2005-05-11 09:07:56 51°13.727 2°47.887 6.9 337 9.5 102570 66
2005-05-11 09:08:02 51°13.725 2°47.885 6.8 338 9.5 102570 66
2005-05-11 09:08:07 51°13.724 2°47.883 5.9 331 9.5 102560 65
2005-05-11 09:08:12 51°13.722 2°47.88 5.7 332 9.5 102560 65
2005-05-11 09:08:17 51°13.721 2°47.879 5.7 333 9.5 102570 65
2005-05-11 09:08:22 51°13.719 2°47.877 6 333 9.5 102570 65
2005-05-11 09:08:27 51°13.718 2°47.874 6.6 321 9.5 102570 65
2005-05-11 09:08:32 51°13.716 2°47.873 5.9 327 9.5 102570 65
2005-05-11 09:08:37 51°13.715 2°47.871 7.3 331 9.5 102560 66
2005-05-11 09:08:42 51°13.713 2°47.869 6.9 329 9.5 102560 66
2005-05-11 09:08:47 51°13.711 2°47.867 6.8 327 9.5 102570 66
2005-05-11 09:08:52 51°13.709 2°47.865 7.5 319 9.5 102570 66
2005-05-11 09:08:56 51°13.708 2°47.863 6.8 324 9.5 102560 67
2005-05-11 09:09:02 51°13.706 2°47.861 6.4 321 9.5 102560 67
2005-05-11 09:09:07 51°13.704 2°47.86 6.3 319 9.5 102560 67
2005-05-11 09:09:11 51°13.703 2°47.858 5.8 318 9.5 102560 67
2005-05-11 09:09:17 51°13.701 2°47.856 6.3 228 9.5 102560 66
2005-05-11 09:09:22 51°13.699 2°47.853 7 315 9.5 102560 66
2005-05-11 09:09:27 51°13.697 2°47.852 6.2 42 9.5 102560 66
2005-05-11 09:09:32 51°13.696 2°47.85 6.2 314 9.5 102560 66
2005-05-11 09:09:36 51°13.694 2°47.848 7.1 308 9.5 102560 66
2005-05-11 09:09:42 51°13.692 2°47.846 6.3 314 9.5 102560 66
2005-05-11 09:09:47 51°13.69 2°47.845 6.2 310 9.5 102560 66
2005-05-11 09:09:52 51°13.689 2°47.843 6 316 9.5 102560 66
2005-05-11 09:09:57 51°13.687 2°47.842 6.5 313 9.5 102570 67
2005-05-11 09:10:02 51°13.686 2°47.841 6.8 318 9.5 102570 67
2005-05-11 09:10:07 51°13.686 2°47.841 6.6 324 9.5 102560 67
2005-05-11 09:10:12 51°13.685 2°47.841 6.7 329 9.5 102560 67
2005-05-11 09:10:16 51°13.685 2°47.841 6 336 9.5 102570 67
2005-05-11 09:10:22 51°13.685 2°47.84 7.8 336 9.5 102570 67
2005-05-11 09:10:27 51°13.685 2°47.841 7.2 337 9.5 102570 66
2005-05-11 09:10:32 51°13.686 2°47.841 7.2 347 9.5 102570 66
2005-05-11 09:10:36 51°13.687 2°47.842 7.2 344 9.5 102560 66
2005-05-11 09:10:42 51°13.689 2°47.843 7 351 9.5 102560 66
2005-05-11 09:10:47 51°13.691 2°47.844 7.4 346 9.5 102570 66
2005-05-11 09:10:52 51°13.694 2°47.846 7.6 353 9.5 102570 66
2005-05-11 09:10:56 51°13.696 2°47.847 7.9 354 9.5 102570 65
2005-05-11 09:11:02 51°13.701 2°47.85 8.5 359 9.5 102570 65
2005-05-11 09:11:07 51°13.704 2°47.851 8.6 1 9.5 102570 66
2005-05-11 09:11:11 51°13.708 2°47.853 7.9 355 9.5 102570 66
2005-05-11 09:11:16 51°13.712 2°47.855 7.9 356 9.5 102570 65
2005-05-11 09:11:22 51°13.717 2°47.857 7.6 345 9.5 102570 65
2005-05-11 09:11:27 51°13.721 2°47.86 8.1 345 9.5 102560 65
2005-05-11 09:11:32 51°13.725 2°47.862 8.5 347 9.5 102560 65
2005-05-11 09:11:36 51°13.728 2°47.864 8.3 344 9.5 102560 65
2005-05-11 09:11:42 51°13.732 2°47.867 8.7 346 9.5 102560 65
2005-05-11 09:11:47 51°13.735 2°47.869 8.3 347 9.6 102560 66
2005-05-11 09:11:52 51°13.738 2°47.872 8.4 345 9.6 102560 66
2005-05-11 09:11:56 51°13.74 2°47.875 8.6 338 9.5 102560 65
2005-05-11 09:12:02 51°13.743 2°47.879 8.8 337 9.5 102560 65
2005-05-11 09:12:07 51°13.746 2°47.883 8.8 334 9.5 102560 64
2005-05-11 09:12:12 51°13.748 2°47.888 8.9 331 9.5 102560 64
2005-05-11 09:12:16 51°13.75 2°47.892 9 333 9.5 102560 65
2005-05-11 09:12:22 51°13.753 2°47.898 8.9 334 9.5 102560 65
2005-05-11 09:12:27 51°13.756 2°47.903 9.4 335 9.5 102560 64
2005-05-11 09:12:32 51°13.758 2°47.909 9.4 339 9.5 102560 64
2005-05-11 09:12:36 51°13.76 2°47.913 8.9 337 9.5 102560 64
2005-05-11 09:12:42 51°13.763 2°47.918 7.2 339 9.5 102560 64
2005-05-11 09:12:47 51°13.765 2°47.923 8.9 336 9.5 102550 63
2005-05-11 09:12:52 51°13.768 2°47.929 7.7 337 9.5 102550 63
2005-05-11 09:12:57 51°13.77 2°47.934 8.4 345 9.5 102560 63
2005-05-11 09:13:02 51°13.772 2°47.939 8.6 353 9.5 102560 63
2005-05-11 09:13:07 51°13.775 2°47.943 8.2 352 9.5 102560 64
2005-05-11 09:13:12 51°13.777 2°47.948 7.7 356 9.5 102560 64
2005-05-11 09:13:16 51°13.779 2°47.951 7.9 350 9.5 102560 65
2005-05-11 09:13:22 51°13.782 2°47.956 7.6 354 9.5 102560 65
2005-05-11 09:13:27 51°13.785 2°47.961 8 351 9.5 102560 65
2005-05-11 09:13:32 51°13.787 2°47.965 7.6 351 9.5 102560 65
2005-05-11 09:13:37 51°13.79 2°47.97 7.7 350 9.5 102560 65
2005-05-11 09:13:42 51°13.793 2°47.975 8.1 350 9.5 102560 65
2005-05-11 09:13:47 51°13.795 2°47.978 7.6 349 9.5 102570 64
2005-05-11 09:13:52 51°13.798 2°47.983 7.4 346 9.5 102570 64
2005-05-11 09:13:56 51°13.8 2°47.987 8.3 343 9.5 102560 65
2005-05-11 09:14:02 51°13.803 2°47.992 8.5 343 9.5 102560 65
2005-05-11 09:14:07 51°13.805 2°47.996 8.5 342 9.5 102570 65
2005-05-11 09:14:11 51°13.807 2°47.999 7.9 337 9.5 102570 65
2005-05-11 09:14:17 51°13.81 2°48.005 7.9 340 9.6 102570 65
2005-05-11 09:14:22 51°13.812 2°48.01 8.4 339 9.6 102570 65
2005-05-11 09:14:27 51°13.814 2°48.014 9 337 9.6 102570 65
2005-05-11 09:14:32 51°13.817 2°48.019 9.3 337 9.6 102570 65
2005-05-11 09:14:37 51°13.818 2°48.024 8.9 340 9.6 102560 65
2005-05-11 09:14:42 51°13.821 2°48.029 9.3 337 9.6 102560 65
2005-05-11 09:14:47 51°13.823 2°48.033 8.9 340 9.6 102560 63
2005-05-11 09:14:51 51°13.824 2°48.036 8.5 342 9.6 102560 63
2005-05-11 09:14:57 51°13.826 2°48.043 8.3 341 9.5 102560 62
2005-05-11 09:15:02 51°13.828 2°48.048 8.3 339 9.5 102560 62
2005-05-11 09:15:07 51°13.83 2°48.054 9.2 340 9.5 102560 61
2005-05-11 09:15:12 51°13.832 2°48.058 8.4 338 9.5 102560 61
2005-05-11 09:15:18 51°13.834 2°48.064 8.4 336 9.5 102560 61
2005-05-11 09:15:22 51°13.836 2°48.068 8.5 335 9.5 102560 61
2005-05-11 09:15:27 51°13.838 2°48.072 8.3 330 9.5 102560 61
2005-05-11 09:15:32 51°13.839 2°48.078 8.3 335 9.5 102560 61
2005-05-11 09:15:36 51°13.841 2°48.082 8.3 335 9.5 102570 62
2005-05-11 09:15:42 51°13.844 2°48.087 7.9 331 9.5 102570 62
2005-05-11 09:15:47 51°13.845 2°48.092 7.4 331 9.5 102560 62
2005-05-11 09:15:51 51°13.847 2°48.096 7.8 335 9.5 102560 62
2005-05-11 09:15:57 51°13.849 2°48.102 7.8 331 9.5 102560 61
2005-05-11 09:16:02 51°13.851 2°48.106 7.6 329 9.5 102560 61
2005-05-11 09:16:07 51°13.852 2°48.111 8.2 331 9.5 102560 61
2005-05-11 09:16:12 51°13.855 2°48.117 8.3 332 9.5 102560 61
2005-05-11 09:16:16 51°13.856 2°48.121 7.7 335 9.5 102560 61
2005-05-11 09:16:22 51°13.859 2°48.126 7.4 331 9.5 102560 61
2005-05-11 09:16:27 51°13.86 2°48.132 8.5 327 9.5 102560 62
2005-05-11 09:16:32 51°13.862 2°48.136 7.7 332 9.5 102560 62
2005-05-11 09:16:36 51°13.864 2°48.141 8.3 327 9.4 102560 61
2005-05-11 09:16:42 51°13.866 2°48.147 7.9 333 9.4 102560 61
2005-05-11 09:16:47 51°13.868 2°48.152 7.4 332 9.4 102570 61
2005-05-11 09:16:52 51°13.87 2°48.157 7.4 330 9.4 102570 61
2005-05-11 09:16:56 51°13.872 2°48.161 7.2 332 9.4 102560 62
2005-05-11 09:17:02 51°13.874 2°48.167 7.7 325 9.4 102560 62
2005-05-11 09:17:07 51°13.876 2°48.172 7.4 333 9.4 102560 63
2005-05-11 09:17:12 51°13.878 2°48.177 8 324 9.4 102560 63
2005-05-11 09:17:16 51°13.879 2°48.181 6.8 330 9.4 102560 62
2005-05-11 09:17:22 51°13.881 2°48.187 7.1 338 9.4 102560 62
2005-05-11 09:17:26 51°13.883 2°48.191 7.4 334 9.4 102560 63
2005-05-11 09:17:32 51°13.885 2°48.197 7.5 335 9.4 102560 63
2005-05-11 09:17:37 51°13.887 2°48.201 8.3 333 9.4 102560 64
2005-05-11 09:17:42 51°13.889 2°48.207 8.3 328 9.4 102560 64
2005-05-11 09:17:47 51°13.891 2°48.212 8.2 333 9.4 102570 64
2005-05-11 09:17:52 51°13.893 2°48.217 7.8 331 9.4 102570 64
2005-05-11 09:17:57 51°13.895 2°48.221 7.9 329 9.4 102560 64
2005-05-11 09:18:02 51°13.897 2°48.227 7.7 334 9.4 102560 64
2005-05-11 09:18:07 51°13.898 2°48.232 7.9 336 9.4 102560 64
2005-05-11 09:18:11 51°13.899 2°48.236 7.9 335 9.4 102560 64
2005-05-11 09:18:16 51°13.901 2°48.24 7.7 334 9.4 102560 64
2005-05-11 09:18:22 51°13.902 2°48.246 7.9 331 9.4 102560 64
2005-05-11 09:18:27 51°13.904 2°48.252 7.1 336 9.4 102550 65
2005-05-11 09:18:32 51°13.905 2°48.257 6.9 335 9.4 102550 65
2005-05-11 09:18:37 51°13.907 2°48.262 7 333 9.4 102560 64
2005-05-11 09:18:42 51°13.908 2°48.268 8 334 9.4 102560 64
2005-05-11 09:18:47 51°13.91 2°48.273 8 334 9.4 102560 63
2005-05-11 09:18:51 51°13.911 2°48.277 7.3 341 9.4 102560 63
2005-05-11 09:18:56 51°13.912 2°48.283 8.3 340 9.4 102570 63
2005-05-11 09:19:02 51°13.914 2°48.29 7.8 338 9.4 102570 63
2005-05-11 09:19:07 51°13.915 2°48.294 7.2 339 9.4 102570 64
2005-05-11 09:19:12 51°13.917 2°48.3 7.5 337 9.4 102570 64
2005-05-11 09:19:16 51°13.918 2°48.305 8.7 342 9.4 102560 64
2005-05-11 09:19:22 51°13.919 2°48.311 7.8 343 9.4 102560 64
2005-05-11 09:19:27 51°13.92 2°48.317 7.9 347 9.4 102560 63
2005-05-11 09:19:32 51°13.922 2°48.322 7.2 340 9.4 102560 63
2005-05-11 09:19:37 51°13.923 2°48.327 7.7 340 9.4 102570 64
2005-05-11 09:19:42 51°13.925 2°48.333 8.1 343 9.4 102570 64
2005-05-11 09:19:47 51°13.926 2°48.338 8 339 9.4 102560 64
2005-05-11 09:19:52 51°13.927 2°48.344 7.2 344 9.4 102560 64
2005-05-11 09:19:57 51°13.929 2°48.349 7.8 345 9.4 102570 64
2005-05-11 09:20:02 51°13.93 2°48.355 7.7 346 9.4 102570 64
2005-05-11 09:20:07 51°13.931 2°48.36 9.2 341 9.4 102570 64
2005-05-11 09:20:12 51°13.933 2°48.366 9 340 9.4 102570 64
2005-05-11 09:20:17 51°13.934 2°48.371 8.4 338 9.5 102570 64
2005-05-11 09:20:22 51°13.935 2°48.377 8 337 9.5 102570 64
2005-05-11 09:20:27 51°13.937 2°48.382 7.8 343 9.5 102560 66
2005-05-11 09:20:32 51°13.938 2°48.388 9.2 330 9.5 102560 66
2005-05-11 09:20:36 51°13.94 2°48.393 8.9 330 9.5 102560 66
2005-05-11 09:20:42 51°13.941 2°48.399 8.5 336 9.5 102560 66
2005-05-11 09:20:47 51°13.942 2°48.405 8.3 334 9.5 102560 65
2005-05-11 09:20:51 51°13.944 2°48.409 9 334 9.5 102560 65
2005-05-11 09:20:56 51°13.945 2°48.415 9.1 336 9.5 102560 67
2005-05-11 09:21:02 51°13.947 2°48.422 8.6 331 9.5 102560 67
2005-05-11 09:21:07 51°13.948 2°48.427 8.7 335 9.5 102550 66
2005-05-11 09:21:12 51°13.949 2°48.432 9.6 333 9.5 102550 66
2005-05-11 09:21:17 51°13.95 2°48.438 8 336 9.5 102560 66
2005-05-11 09:21:22 51°13.952 2°48.444 8.1 338 9.5 102560 66
2005-05-11 09:21:27 51°13.953 2°48.449 8.1 334 9.5 102560 65
2005-05-11 09:21:32 51°13.955 2°48.455 8 334 9.5 102560 65
2005-05-11 09:21:37 51°13.956 2°48.46 8 333 9.5 102550 66
2005-05-11 09:21:42 51°13.958 2°48.466 7.6 330 9.5 102550 66
2005-05-11 09:21:47 51°13.959 2°48.472 8.1 333 9.5 102560 64
2005-05-11 09:21:51 51°13.96 2°48.475 7.8 340 9.5 102560 64
2005-05-11 09:21:56 51°13.961 2°48.481 8 336 9.5 102560 63
2005-05-11 09:22:02 51°13.963 2°48.488 7.8 332 9.5 102560 63
2005-05-11 09:22:07 51°13.964 2°48.493 7.8 332 9.5 102560 63
2005-05-11 09:22:12 51°13.965 2°48.499 7.5 332 9.5 102560 63
2005-05-11 09:22:16 51°13.966 2°48.503 7.4 342 9.5 102560 65
2005-05-11 09:22:22 51°13.968 2°48.509 7.6 336 9.5 102560 65
2005-05-11 09:22:27 51°13.97 2°48.515 8.4 328 9.5 102570 65
2005-05-11 09:22:32 51°13.971 2°48.52 8.2 330 9.5 102570 65
2005-05-11 09:22:36 51°13.972 2°48.524 7.1 333 9.5 102560 65
2005-05-11 09:22:42 51°13.973 2°48.53 7.8 334 9.5 102560 65
2005-05-11 09:22:47 51°13.974 2°48.535 7.4 334 9.5 102560 65
2005-05-11 09:22:52 51°13.976 2°48.541 7.9 333 9.5 102560 65
2005-05-11 09:22:56 51°13.977 2°48.545 7.4 335 9.4 102550 65
2005-05-11 09:23:02 51°13.979 2°48.552 7.3 335 9.4 102550 65
2005-05-11 09:23:07 51°13.98 2°48.557 6.8 335 9.4 102560 64
2005-05-11 09:23:12 51°13.981 2°48.562 7 336 9.4 102560 64
2005-05-11 09:23:17 51°13.982 2°48.567 7.1 332 9.4 102570 64
2005-05-11 09:23:22 51°13.984 2°48.573 7.1 333 9.4 102570 64
2005-05-11 09:23:27 51°13.985 2°48.578 7.7 327 9.4 102560 64
2005-05-11 09:23:32 51°13.987 2°48.584 7.7 332 9.4 102560 64
2005-05-11 09:23:36 51°13.988 2°48.588 7 337 9.4 102570 64
2005-05-11 09:23:41 51°13.989 2°48.593 7 338 9.4 102570 64
2005-05-11 09:23:47 51°13.991 2°48.6 7 338 9.4 102560 64
2005-05-11 09:23:52 51°13.992 2°48.606 8.5 340 9.4 102560 64
2005-05-11 09:23:56 51°13.993 2°48.61 8.3 337 9.4 102560 64
2005-05-11 09:24:02 51°13.994 2°48.616 8.9 340 9.4 102560 64
2005-05-11 09:24:07 51°13.995 2°48.622 8.9 342 9.4 102570 66
2005-05-11 09:24:12 51°13.997 2°48.628 8.4 339 9.4 102570 66
2005-05-11 09:24:17 51°13.998 2°48.633 8.6 337 9.4 102560 67
2005-05-11 09:24:22 51°14 2°48.638 8.6 340 9.4 102560 67
2005-05-11 09:24:27 51°14.001 2°48.644 8 341 9.4 102570 67
2005-05-11 09:24:32 51°14.002 2°48.649 8 344 9.4 102570 67
2005-05-11 09:24:36 51°14.003 2°48.653 8.7 342 9.4 102560 65
2005-05-11 09:24:42 51°14.005 2°48.66 8.2 338 9.4 102560 65
2005-05-11 09:24:47 51°14.006 2°48.665 7.6 345 9.4 102550 65
2005-05-11 09:24:52 51°14.007 2°48.671 8 337 9.4 102550 65
2005-05-11 09:24:57 51°14.008 2°48.675 7.9 339 9.4 102560 65
2005-05-11 09:25:02 51°14.01 2°48.681 7.8 339 9.4 102560 65
2005-05-11 09:25:07 51°14.011 2°48.687 7.8 336 9.4 102560 65
2005-05-11 09:25:11 51°14.012 2°48.691 7.5 338 9.4 102560 65
2005-05-11 09:25:17 51°14.014 2°48.697 7.6 336 9.4 102560 65
2005-05-11 09:25:22 51°14.015 2°48.703 8.1 336 9.4 102560 65
2005-05-11 09:25:27 51°14.017 2°48.708 7.1 339 9.4 102560 65
2005-05-11 09:25:31 51°14.018 2°48.712 7.7 336 9.4 102560 65
2005-05-11 09:25:37 51°14.019 2°48.719 7.6 343 9.4 102560 64
2005-05-11 09:25:42 51°14.021 2°48.725 7.4 345 9.4 102560 64
2005-05-11 09:25:47 51°14.022 2°48.73 7.3 342 9.4 102560 64
2005-05-11 09:25:52 51°14.024 2°48.736 8.2 340 9.4 102560 64
2005-05-11 09:25:57 51°14.025 2°48.741 8.7 341 9.4 102570 65
2005-05-11 09:26:02 51°14.026 2°48.747 7.6 342 9.4 102570 65
2005-05-11 09:26:07 51°14.028 2°48.752 8 342 9.5 102570 66
2005-05-11 09:26:12 51°14.029 2°48.758 7.9 341 9.5 102570 66
2005-05-11 09:26:17 51°14.03 2°48.763 7.2 344 9.5 102560 66
2005-05-11 09:26:22 51°14.032 2°48.768 7 337 9.5 102560 66
2005-05-11 09:26:27 51°14.033 2°48.774 6.5 339 9.5 102570 66
2005-05-11 09:26:31 51°14.034 2°48.778 7.3 335 9.5 102570 66
2005-05-11 09:26:37 51°14.036 2°48.786 7.9 338 9.5 102560 65
2005-05-11 09:26:42 51°14.037 2°48.792 9 347 9.5 102560 65
2005-05-11 09:26:46 51°14.039 2°48.796 8.5 337 9.5 102560 65
2005-05-11 09:26:52 51°14.04 2°48.803 8.7 334 9.5 102560 65
2005-05-11 09:26:57 51°14.041 2°48.809 8.7 337 9.5 102570 65
2005-05-11 09:27:02 51°14.043 2°48.814 8.5 339 9.5 102570 65
2005-05-11 09:27:07 51°14.044 2°48.82 8.9 336 9.5 102560 66
2005-05-11 09:27:11 51°14.045 2°48.824 8.8 334 9.5 102560 66
2005-05-11 09:27:17 51°14.046 2°48.83 8.1 333 9.5 102550 67
2005-05-11 09:27:22 51°14.047 2°48.837 8.3 336 9.5 102550 67
2005-05-11 09:27:27 51°14.048 2°48.842 8.1 335 9.5 102560 67
2005-05-11 09:27:31 51°14.049 2°48.846 7.2 334 9.5 102560 67
2005-05-11 09:27:36 51°14.051 2°48.852 7.9 334 9.5 102560 67
2005-05-11 09:27:42 51°14.052 2°48.859 7.6 334 9.5 102560 67
2005-05-11 09:27:47 51°14.053 2°48.865 7.2 335 9.5 102570 67
2005-05-11 09:27:52 51°14.055 2°48.87 7.4 330 9.5 102570 67
2005-05-11 09:27:56 51°14.055 2°48.874 7.4 335 9.5 102560 66
2005-05-11 09:28:02 51°14.057 2°48.881 8.3 334 9.5 102560 66
2005-05-11 09:28:07 51°14.058 2°48.887 8.4 341 9.5 102570 66
2005-05-11 09:28:12 51°14.06 2°48.89 8.1 344 9.5 102570 66
2005-05-11 09:28:16 51°14.061 2°48.896 9.1 331 9.5 102570 66
2005-05-11 09:28:23 51°14.062 2°48.903 8.7 334 9.5 102570 66
2005-05-11 09:28:27 51°14.064 2°48.907 8.6 327 9.5 102560 67
2005-05-11 09:28:31 51°14.065 2°48.912 8 333 9.5 102560 67
2005-05-11 09:28:36 51°14.066 2°48.918 8.8 329 9.5 102560 67
2005-05-11 09:28:42 51°14.068 2°48.924 7.2 329 9.5 102560 67
2005-05-11 09:28:47 51°14.069 2°48.929 7.3 331 9.5 102560 66
2005-05-11 09:28:51 51°14.071 2°48.933 7.9 344 9.5 102560 66
2005-05-11 09:28:56 51°14.072 2°48.939 7.9 340 9.5 102560 65
2005-05-11 09:29:02 51°14.074 2°48.946 8.5 335 9.5 102560 65
2005-05-11 09:29:07 51°14.075 2°48.951 8.5 339 9.5 102550 66
2005-05-11 09:29:11 51°14.077 2°48.956 8.1 340 9.5 102550 66
2005-05-11 09:29:16 51°14.078 2°48.961 8 336 9.5 102560 67
2005-05-11 09:29:22 51°14.08 2°48.968 8.3 336 9.5 102560 67
2005-05-11 09:29:27 51°14.081 2°48.973 7.6 340 9.5 102560 67
2005-05-11 09:29:32 51°14.083 2°48.978 8.1 341 9.5 102560 67
2005-05-11 09:29:37 51°14.085 2°48.984 8.7 342 9.5 102560 67
2005-05-11 09:29:42 51°14.086 2°48.989 8.8 340 9.5 102560 67
2005-05-11 09:29:47 51°14.087 2°48.995 7.6 340 9.5 102550 65
2005-05-11 09:29:52 51°14.089 2°49.001 8.5 332 9.5 102550 65
2005-05-11 09:29:56 51°14.09 2°49.005 8 335 9.5 102560 65
2005-05-11 09:30:02 51°14.092 2°49.012 8.5 335 9.5 102560 65
2005-05-11 09:30:07 51°14.093 2°49.017 8.9 333 9.5 102550 64
2005-05-11 09:30:12 51°14.094 2°49.023 8.5 331 9.5 102550 64
2005-05-11 09:30:16 51°14.095 2°49.027 8.1 332 9.5 102570 65
2005-05-11 09:30:22 51°14.097 2°49.034 7.8 327 9.5 102570 65
2005-05-11 09:30:27 51°14.099 2°49.038 8.1 328 9.5 102550 65
2005-05-11 09:30:32 51°14.1 2°49.044 7.9 332 9.5 102550 65
2005-05-11 09:30:37 51°14.102 2°49.049 7.5 336 9.5 102560 65
2005-05-11 09:30:42 51°14.103 2°49.055 8.2 325 9.5 102560 65
2005-05-11 09:30:47 51°14.104 2°49.06 7.4 334 9.5 102550 65
2005-05-11 09:30:52 51°14.106 2°49.066 8.5 337 9.5 102550 65
2005-05-11 09:30:56 51°14.107 2°49.071 7.9 334 9.5 102560 66
2005-05-11 09:31:02 51°14.108 2°49.077 7.2 335 9.5 102560 66
2005-05-11 09:31:07 51°14.109 2°49.082 7.9 336 9.6 102560 67
2005-05-11 09:31:12 51°14.111 2°49.088 8 334 9.6 102560 67
2005-05-11 09:31:16 51°14.112 2°49.093 8.4 333 9.5 102560 65
2005-05-11 09:31:22 51°14.113 2°49.099 7.8 337 9.5 102560 65
2005-05-11 09:31:27 51°14.115 2°49.104 7.8 340 9.5 102560 65
2005-05-11 09:31:32 51°14.116 2°49.11 7.1 339 9.5 102560 65
2005-05-11 09:31:37 51°14.118 2°49.115 7.2 336 9.5 102570 64
2005-05-11 09:31:42 51°14.118 2°49.12 7.4 336 9.5 102570 64
2005-05-11 09:31:47 51°14.12 2°49.125 7.5 340 9.5 102560 63
2005-05-11 09:31:52 51°14.121 2°49.13 7.2 337 9.5 102560 63
2005-05-11 09:31:57 51°14.123 2°49.136 7.1 336 9.5 102560 62
2005-05-11 09:32:02 51°14.124 2°49.142 7.4 337 9.5 102560 62
2005-05-11 09:32:07 51°14.125 2°49.146 7.3 331 9.5 102560 61
2005-05-11 09:32:12 51°14.127 2°49.152 7.3 334 9.5 102560 61
2005-05-11 09:32:17 51°14.128 2°49.157 7.2 337 9.5 102560 61
2005-05-11 09:32:22 51°14.129 2°49.163 6.4 340 9.5 102560 61
2005-05-11 09:32:27 51°14.13 2°49.167 7 337 9.5 102570 62
2005-05-11 09:32:32 51°14.132 2°49.174 7.8 342 9.5 102570 62
2005-05-11 09:32:36 51°14.133 2°49.178 7.4 342 9.5 102560 63
2005-05-11 09:32:42 51°14.134 2°49.185 7.1 343 9.5 102560 63
2005-05-11 09:32:47 51°14.136 2°49.189 7.5 344 9.5 102560 64
2005-05-11 09:32:52 51°14.137 2°49.195 7.4 344 9.5 102560 64
2005-05-11 09:32:57 51°14.138 2°49.2 8.1 341 9.5 102560 63
2005-05-11 09:33:02 51°14.14 2°49.206 7.7 339 9.5 102560 63
2005-05-11 09:33:07 51°14.141 2°49.211 7.2 338 9.5 102560 62
2005-05-11 09:33:12 51°14.142 2°49.217 7.3 337 9.5 102560 62
2005-05-11 09:33:16 51°14.144 2°49.221 7.4 334 9.5 102560 62
2005-05-11 09:33:22 51°14.145 2°49.227 7.5 336 9.5 102560 62
2005-05-11 09:33:27 51°14.147 2°49.232 8 336 9.6 102560 63
2005-05-11 09:33:32 51°14.148 2°49.239 8.1 337 9.6 102560 63
2005-05-11 09:33:36 51°14.15 2°49.243 7.9 340 9.5 102560 61
2005-05-11 09:33:42 51°14.151 2°49.249 8 339 9.5 102560 61
2005-05-11 09:33:47 51°14.153 2°49.255 7.6 336 9.6 102560 61
2005-05-11 09:33:52 51°14.154 2°49.261 7.5 337 9.6 102560 61
2005-05-11 09:33:57 51°14.155 2°49.265 7.6 342 9.6 102560 62
2005-05-11 09:34:02 51°14.157 2°49.271 8.6 329 9.6 102560 62
2005-05-11 09:34:07 51°14.157 2°49.277 7.8 331 9.6 102560 61
2005-05-11 09:34:12 51°14.159 2°49.282 8.6 328 9.6 102560 61
2005-05-11 09:34:16 51°14.16 2°49.287 8 328 9.6 102560 61
2005-05-11 09:34:22 51°14.162 2°49.293 8 331 9.6 102560 61
2005-05-11 09:34:27 51°14.163 2°49.298 8.1 325 9.6 102560 61
2005-05-11 09:34:32 51°14.164 2°49.305 8 323 9.6 102560 61
2005-05-11 09:34:36 51°14.165 2°49.309 8 328 9.6 102560 60
2005-05-11 09:34:42 51°14.167 2°49.316 7.7 325 9.6 102560 60
2005-05-11 09:34:47 51°14.168 2°49.322 7.6 325 9.5 102560 60
2005-05-11 09:34:52 51°14.169 2°49.327 8.1 325 9.5 102560 60
2005-05-11 09:34:56 51°14.17 2°49.332 7.4 323 9.5 102560 59
2005-05-11 09:35:02 51°14.172 2°49.339 7.4 317 9.5 102560 59
2005-05-11 09:35:07 51°14.173 2°49.344 8 320 9.5 102560 60
2005-05-11 09:35:12 51°14.175 2°49.35 8.1 329 9.5 102560 60
2005-05-11 09:35:17 51°14.176 2°49.355 7.8 324 9.5 102560 60
2005-05-11 09:35:22 51°14.177 2°49.361 8.2 331 9.5 102560 60
2005-05-11 09:35:27 51°14.178 2°49.366 8.7 336 9.5 102560 60
2005-05-11 09:35:32 51°14.18 2°49.372 7.5 332 9.5 102560 60
2005-05-11 09:35:36 51°14.182 2°49.377 8.3 331 9.5 102560 61
2005-05-11 09:35:42 51°14.183 2°49.383 8.1 339 9.5 102560 61
2005-05-11 09:35:47 51°14.184 2°49.389 8.6 339 9.6 102560 63
2005-05-11 09:35:52 51°14.186 2°49.394 8.1 340 9.6 102560 63
2005-05-11 09:35:57 51°14.188 2°49.4 7.4 340 9.6 102560 61
2005-05-11 09:36:02 51°14.189 2°49.406 8.4 338 9.6 102560 61
2005-05-11 09:36:07 51°14.19 2°49.411 7.6 337 9.5 102560 60
2005-05-11 09:36:12 51°14.192 2°49.417 7.8 336 9.5 102560 60
2005-05-11 09:36:16 51°14.193 2°49.422 7.7 337 9.5 102570 60
2005-05-11 09:36:22 51°14.195 2°49.428 7.1 335 9.5 102570 60
2005-05-11 09:36:27 51°14.196 2°49.433 7 336 9.5 102560 60
2005-05-11 09:36:31 51°14.197 2°49.438 7 330 9.5 102560 60
2005-05-11 09:36:37 51°14.199 2°49.444 6.8 334 9.5 102560 59
2005-05-11 09:36:42 51°14.201 2°49.45 6.8 333 9.5 102560 59
2005-05-11 09:36:47 51°14.202 2°49.456 6.9 340 9.5 102560 59
2005-05-11 09:36:52 51°14.204 2°49.461 6.5 335 9.5 102560 59
2005-05-11 09:36:56 51°14.205 2°49.466 6.6 335 9.5 102560 60
2005-05-11 09:37:02 51°14.207 2°49.473 6.6 334 9.5 102560 60
2005-05-11 09:37:07 51°14.208 2°49.478 7.2 330 9.5 102560 60
2005-05-11 09:37:12 51°14.21 2°49.484 6.7 336 9.5 102560 60
2005-05-11 09:37:16 51°14.211 2°49.489 7.1 340 9.5 102560 60
2005-05-11 09:37:22 51°14.213 2°49.495 6.7 336 9.5 102560 60
2005-05-11 09:37:27 51°14.215 2°49.501 7.4 331 9.5 102570 60
2005-05-11 09:37:32 51°14.216 2°49.507 7.7 338 9.5 102570 60
2005-05-11 09:37:36 51°14.217 2°49.512 7.6 336 9.5 102560 61
2005-05-11 09:37:42 51°14.22 2°49.519 7.8 330 9.5 102560 61
2005-05-11 09:37:47 51°14.221 2°49.524 7.3 340 9.5 102570 62
2005-05-11 09:37:52 51°14.223 2°49.53 7.6 335 9.5 102570 62
2005-05-11 09:37:57 51°14.224 2°49.536 8.7 337 9.5 102560 62
2005-05-11 09:38:02 51°14.225 2°49.541 8 342 9.5 102560 62
2005-05-11 09:38:07 51°14.227 2°49.548 8.4 339 9.6 102560 63
2005-05-11 09:38:12 51°14.228 2°49.553 8.7 337 9.6 102560 63
2005-05-11 09:38:17 51°14.229 2°49.559 8.8 335 9.6 102560 63
2005-05-11 09:38:22 51°14.231 2°49.565 8.3 337 9.6 102560 63
2005-05-11 09:38:27 51°14.232 2°49.57 8.4 332 9.5 102560 60
2005-05-11 09:38:32 51°14.234 2°49.576 8.2 328 9.5 102560 60
2005-05-11 09:38:36 51°14.235 2°49.58 7 335 9.5 102560 58
2005-05-11 09:38:42 51°14.237 2°49.587 7.7 336 9.5 102560 58
2005-05-11 09:38:47 51°14.238 2°49.593 7.9 336 9.5 102560 57
2005-05-11 09:38:52 51°14.24 2°49.599 7.6 323 9.5 102560 57
2005-05-11 09:38:56 51°14.241 2°49.603 7.7 331 9.5 102560 57
2005-05-11 09:39:02 51°14.243 2°49.609 7.5 331 9.5 102560 57
2005-05-11 09:39:07 51°14.244 2°49.615 7.3 334 9.5 102560 59
2005-05-11 09:39:12 51°14.246 2°49.621 7.6 330 9.5 102560 59
2005-05-11 09:39:17 51°14.247 2°49.626 7.5 329 9.6 102560 60
2005-05-11 09:39:22 51°14.249 2°49.632 7.6 330 9.6 102560 60
2005-05-11 09:39:27 51°14.25 2°49.638 7.5 329 9.5 102560 59
2005-05-11 09:39:32 51°14.252 2°49.643 8.6 328 9.5 102560 59
2005-05-11 09:39:36 51°14.253 2°49.648 8.3 329 9.5 102560 59
2005-05-11 09:39:42 51°14.255 2°49.654 7.7 325 9.5 102560 59
2005-05-11 09:39:47 51°14.256 2°49.659 7.5 330 9.5 102560 60
2005-05-11 09:39:52 51°14.257 2°49.664 7.5 331 9.5 102560 60
2005-05-11 09:39:57 51°14.259 2°49.669 7.3 330 9.5 102560 60
2005-05-11 09:40:02 51°14.26 2°49.674 8 327 9.5 102560 60
2005-05-11 09:40:07 51°14.261 2°49.679 7.3 339 9.5 102550 60